Volver al catálogo

FENGYUN 1C DEB

ActivoPO
NORAD 30477·DEBRIS·🇨🇳 China

Lanzado May 10, 1999 desde Taiyuan Satellite Launch Center

Loading…

Próximos Pases (próximas 24 horas)

TLE

ActualizadoSource: Space-Track

Época: Sep 14, 2026, 15:08 UTC

1 30477U 99025AGQ 26257.63067350  .00000668  00000-0  10140-2 0  9996
2 30477  99.4194 320.1094 0426884 334.5605 184.1909 13.24392432943704

Sigue FENGYUN 1C DEB en tiempo real con AllMySat

Download on the App Store